This demonstration page uses our WeatherBlox Daily Observations layout. Learn more.

Left ArrowRight Arrow

Hourly Observations for January 28, 2015

Temp ( °F °C ) Dew Point ( °F °C ) Humidity (%) Winds ( mph kmh ) Pressure ( in mb ) Visibility ( mi km ) Precip ( " mm )
12:52 am 00:52 Mostly Clear 39 3.9 31 -0.6 73 73 SSE 16 26 29.99 1016 10 16 0.00 0.00
1:52 am 01:52 Mostly Clear 38 3.3 30 -1.1 73 73 SSE 15 24 29.97 1015 10 16 0.00 0.00
2:52 am 02:52 Mostly Clear 37 2.8 30 -1.1 76 76 SE 12 19 29.96 1015 10 16 0.00 0.00
3:52 am 03:52 Partly Cloudy 36 2.2 30 -1.1 79 79 SE 13 20 29.94 1014 10 16 0.00 0.00
4:52 am 04:52 Partly Cloudy 35 1.7 29 -1.7 78 78 SE 12 19 29.92 1013 10 16 0.00 0.00
5:52 am 05:52 Partly Cloudy 34 1.1 29 -1.7 82 82 SE 12 19 29.92 1013 10 16 0.00 0.00
6:52 am 06:52 Partly Cloudy 34 1.1 29 -1.7 82 82 SE 14 22 29.91 1013 10 16 0.00 0.00
7:52 am 07:52 Mostly Cloudy 34 1.1 29 -1.7 82 82 SE 12 19 29.89 1012 10 16 0.00 0.00
8:52 am 08:52 Mostly Cloudy 35 1.7 30 -1.1 82 82 SE 13 20 29.86 1011 10 16 0.00 0.00
9:52 am 09:52 Mostly Cloudy 38 3.3 30 -1.1 73 73 SE 13 20 29.86 1011 10 16 0.00 0.00
10:52 am 10:52 Mostly Cloudy 42 5.6 32 0 68 68 SSE 15 24 29.82 1010 10 16 0.00 0.00
11:52 am 11:52 Mostly Cloudy 46 7.8 33 0.6 61 61 SSE 10 17 29.79 1009 10 16 0.00 0.00
12:52 pm 12:52 Mostly Cloudy 49 9.4 33 0.6 55 55 SSE 10 17 29.74 1007 10 16 0.00 0.00
1:52 pm 13:52 Mostly Cloudy 52 11.1 35 1.7 53 53 SSE 13 20 29.70 1006 10 16 0.00 0.00
2:52 pm 14:52 Mostly Cloudy 55 12.8 36 2.2 49 49 S 9 15 29.65 1004 10 16 0.00 0.00
3:52 pm 15:52 Mostly Cloudy 58 14.4 36 2.2 44 44 SSW 3 6 29.68 1005 10 16 0.00 0.00
4:52 pm 16:52 Mostly Sunny 57 13.9 36 2.2 45 45 WSW 3 6 29.69 1006 10 16 0.00 0.00
5:52 pm 17:52 Mostly Clear 49 9.4 34 1.1 56 56 WNW 5 7 29.70 1006 10 16 0.00 0.00
6:52 pm 18:52 Clear 42 5.6 34 1.1 73 73 NNW 7 11 29.73 1007 10 16 0.00 0.00
7:52 pm 19:52 Clear 48 8.9 36 2.2 63 63 NW 15 24 29.76 1008 10 16 0.00 0.00
8:52 pm 20:52 Mostly Cloudy 49 9.4 38 3.3 66 66 NW 25 41 29.80 1009 10 16 0.00 0.00
9:52 pm 21:52 Mostly Cloudy 45 7.2 37 2.8 74 74 NNW 24 39 29.85 1011 10 16 0.00 0.00
10:09 pm 22:09 Cloudy 45 7.2 37 2.8 74 74 NNW 23 37 29.88 1012 10 16 0.00 0.00
10:52 pm 22:52 Cloudy 45 7.2 36 2.2 71 71 NNW 32 52 29.90 1013 10 16 0.00 0.00
11:52 pm 23:52 Cloudy 43 6.1 36 2.2 76 76 NNW 32 52 29.94 1014 10 16 0.00 0.00

Powered by AerisWeather